Year,Month,Day,Hour,Minute,Value (Times are PST for temperature in C)
2018,07,01,00,00,14.90
2018,07,01,00,01,14.90
2018,07,01,00,02,14.90
2018,07,01,00,03,14.90
2018,07,01,00,04,14.90
2018,07,01,00,05,14.90
2018,07,01,00,06,14.90
2018,07,01,00,07,14.90
2018,07,01,00,08,14.90
2018,07,01,00,09,14.80
2018,07,01,00,10,14.80
2018,07,01,00,11,14.80
2018,07,01,00,12,14.80
2018,07,01,00,13,14.80
2018,07,01,00,14,14.80
2018,07,01,00,15,14.80
2018,07,01,00,16,14.80
2018,07,01,00,17,14.80
2018,07,01,00,18,14.80
2018,07,01,00,19,14.80
2018,07,01,00,20,14.80
2018,07,01,00,21,14.80
2018,07,01,00,22,14.80
2018,07,01,00,23,14.80
2018,07,01,00,24,14.70
2018,07,01,00,25,14.70
2018,07,01,00,26,14.70
2018,07,01,00,27,14.70
2018,07,01,00,28,14.70
2018,07,01,00,29,14.70
2018,07,01,00,30,14.70
2018,07,01,00,31,14.70
2018,07,01,00,32,14.70
2018,07,01,00,33,14.60
2018,07,01,00,34,14.60
2018,07,01,00,35,14.60
2018,07,01,00,36,14.60
2018,07,01,00,37,14.60
2018,07,01,00,38,14.50
2018,07,01,00,39,14.50
2018,07,01,00,40,14.50
2018,07,01,00,41,14.50
2018,07,01,00,42,14.50
2018,07,01,00,43,14.50
2018,07,01,00,44,14.40
2018,07,01,00,45,14.40
2018,07,01,00,46,14.40
2018,07,01,00,47,14.40
2018,07,01,00,48,14.40
2018,07,01,00,49,14.40
2018,07,01,00,50,14.30
2018,07,01,00,51,14.30
2018,07,01,00,52,14.30
2018,07,01,00,53,14.30
2018,07,01,00,54,14.30
2018,07,01,00,55,14.30
2018,07,01,00,56,14.20
2018,07,01,00,57,14.20
2018,07,01,00,58,14.20
2018,07,01,00,59,14.20
2018,07,01,01,00,14.20
2018,07,01,01,01,14.20
2018,07,01,01,02,14.20
2018,07,01,01,03,14.20
2018,07,01,01,04,14.10
2018,07,01,01,05,14.10
2018,07,01,01,06,14.10
2018,07,01,01,07,14.10
2018,07,01,01,08,14.10
2018,07,01,01,09,14.00
2018,07,01,01,10,14.00
2018,07,01,01,11,14.00
2018,07,01,01,12,14.00
2018,07,01,01,13,13.90
2018,07,01,01,14,13.90
2018,07,01,01,15,13.90
2018,07,01,01,16,13.90
2018,07,01,01,17,13.90
2018,07,01,01,18,13.90
2018,07,01,01,19,13.90
2018,07,01,01,20,13.80
2018,07,01,01,21,13.80
2018,07,01,01,22,13.80
2018,07,01,01,23,13.80
2018,07,01,01,24,13.80
2018,07,01,01,25,13.80
2018,07,01,01,26,13.80
2018,07,01,01,27,13.70
2018,07,01,01,28,13.70
2018,07,01,01,29,13.70
2018,07,01,01,30,13.70
2018,07,01,01,31,13.70
2018,07,01,01,32,13.60
2018,07,01,01,33,13.60
2018,07,01,01,34,13.60
2018,07,01,01,35,13.60
2018,07,01,01,36,13.60
2018,07,01,01,37,13.60
2018,07,01,01,38,13.50
2018,07,01,01,39,13.50
2018,07,01,01,40,13.50
2018,07,01,01,41,13.50
2018,07,01,01,42,13.50
2018,07,01,01,43,13.40
2018,07,01,01,44,13.40
2018,07,01,01,45,13.40
2018,07,01,01,46,13.40
2018,07,01,01,47,13.40
2018,07,01,01,48,13.30
2018,07,01,01,49,13.30
2018,07,01,01,50,13.30
2018,07,01,01,51,13.30
2018,07,01,01,52,13.30
2018,07,01,01,53,13.30
2018,07,01,01,54,13.20
2018,07,01,01,55,13.20
2018,07,01,01,56,13.20
2018,07,01,01,57,13.20
2018,07,01,01,58,13.20
2018,07,01,01,59,13.20
2018,07,01,02,00,13.20
2018,07,01,02,01,13.20
2018,07,01,02,02,13.20
2018,07,01,02,03,13.20
2018,07,01,02,04,13.10
2018,07,01,02,05,13.10
2018,07,01,02,06,13.10
2018,07,01,02,07,13.10
2018,07,01,02,08,13.10
2018,07,01,02,09,13.10
2018,07,01,02,10,13.10
2018,07,01,02,11,13.10
2018,07,01,02,12,13.10
2018,07,01,02,13,13.10
2018,07,01,02,14,13.00
2018,07,01,02,15,13.00
2018,07,01,02,16,13.00
2018,07,01,02,17,13.00
2018,07,01,02,18,13.00
2018,07,01,02,19,13.00
2018,07,01,02,20,13.00
2018,07,01,02,21,13.00
2018,07,01,02,22,13.00
2018,07,01,02,23,12.90
2018,07,01,02,24,12.90
2018,07,01,02,25,12.90
2018,07,01,02,26,12.90
2018,07,01,02,27,12.90
2018,07,01,02,28,12.90
2018,07,01,02,29,12.90
2018,07,01,02,30,12.90
2018,07,01,02,31,12.90
2018,07,01,02,32,12.80
2018,07,01,02,33,12.80
2018,07,01,02,34,12.80
2018,07,01,02,35,12.80
2018,07,01,02,36,12.80
2018,07,01,02,37,12.80
2018,07,01,02,38,12.80
2018,07,01,02,39,12.70
2018,07,01,02,40,12.70
2018,07,01,02,41,12.70
2018,07,01,02,42,12.70
2018,07,01,02,43,12.70
2018,07,01,02,44,12.60
2018,07,01,02,45,12.60
2018,07,01,02,46,12.60
2018,07,01,02,47,12.60
2018,07,01,02,48,12.60
2018,07,01,02,49,12.60
2018,07,01,02,50,12.60
2018,07,01,02,51,12.60
2018,07,01,02,52,12.60
2018,07,01,02,53,12.60
2018,07,01,02,54,12.50
2018,07,01,02,55,12.60
2018,07,01,02,56,12.50
2018,07,01,02,57,12.50
2018,07,01,02,58,12.50
2018,07,01,02,59,12.50
2018,07,01,03,00,12.50
2018,07,01,03,01,12.50
2018,07,01,03,02,12.50
2018,07,01,03,03,12.50
2018,07,01,03,04,12.40
2018,07,01,03,05,12.40
2018,07,01,03,06,12.40
2018,07,01,03,07,12.40
2018,07,01,03,08,12.40
2018,07,01,03,09,12.30
2018,07,01,03,10,12.30
2018,07,01,03,11,12.30
2018,07,01,03,12,12.30
2018,07,01,03,13,12.30
2018,07,01,03,14,12.30
2018,07,01,03,15,12.30
2018,07,01,03,16,12.20
2018,07,01,03,17,12.20
2018,07,01,03,18,12.20
2018,07,01,03,19,12.20
2018,07,01,03,20,12.20
2018,07,01,03,21,12.20
2018,07,01,03,22,12.20
2018,07,01,03,23,12.20
2018,07,01,03,24,12.10
2018,07,01,03,25,12.10
2018,07,01,03,26,12.10
2018,07,01,03,27,12.10
2018,07,01,03,28,12.10
2018,07,01,03,29,12.00
2018,07,01,03,30,12.10
2018,07,01,03,31,12.00
2018,07,01,03,32,12.00
2018,07,01,03,33,12.00
2018,07,01,03,34,12.00
2018,07,01,03,35,12.00
2018,07,01,03,36,12.00
2018,07,01,03,37,12.00
2018,07,01,03,38,12.00
2018,07,01,03,39,11.90
2018,07,01,03,40,11.90
2018,07,01,03,41,11.90
2018,07,01,03,42,11.90
2018,07,01,03,43,11.90
2018,07,01,03,44,11.90
2018,07,01,03,45,11.90
2018,07,01,03,46,11.90
2018,07,01,03,47,11.90
2018,07,01,03,48,11.90
2018,07,01,03,49,11.90
2018,07,01,03,50,11.90
2018,07,01,03,51,11.90
2018,07,01,03,52,11.90
2018,07,01,03,53,11.90
2018,07,01,03,54,11.90
2018,07,01,03,55,11.90
2018,07,01,03,56,11.90
2018,07,01,03,57,11.90
2018,07,01,03,58,11.90
2018,07,01,03,59,11.90
2018,07,01,04,00,11.90
2018,07,01,04,01,11.90
2018,07,01,04,02,11.90
2018,07,01,04,03,11.90
2018,07,01,04,04,11.90
2018,07,01,04,05,11.80
2018,07,01,04,06,11.80
2018,07,01,04,07,11.80
2018,07,01,04,08,11.80
2018,07,01,04,09,11.80
2018,07,01,04,10,11.80
2018,07,01,04,11,11.80
2018,07,01,04,12,11.80
2018,07,01,04,13,11.90
2018,07,01,04,14,11.90
2018,07,01,04,15,11.90
2018,07,01,04,16,11.90
2018,07,01,04,17,11.90
2018,07,01,04,18,11.90
2018,07,01,04,19,11.90
2018,07,01,04,20,11.90
2018,07,01,04,21,11.90
2018,07,01,04,22,11.90
2018,07,01,04,23,12.00
2018,07,01,04,24,11.90
2018,07,01,04,25,11.90
2018,07,01,04,26,12.00
2018,07,01,04,27,11.90
2018,07,01,04,28,11.90
2018,07,01,04,29,11.90
2018,07,01,04,30,11.90
2018,07,01,04,31,11.90
2018,07,01,04,32,11.90
2018,07,01,04,33,11.90
2018,07,01,04,34,11.90
2018,07,01,04,35,11.90
2018,07,01,04,36,11.90
2018,07,01,04,37,11.90
2018,07,01,04,38,11.80
2018,07,01,04,39,11.80
2018,07,01,04,40,11.80
2018,07,01,04,41,11.80
2018,07,01,04,42,11.80
2018,07,01,04,43,11.80
2018,07,01,04,44,11.80
2018,07,01,04,45,11.80
2018,07,01,04,46,11.80
2018,07,01,04,47,11.80
2018,07,01,04,48,11.80
2018,07,01,04,49,11.70
2018,07,01,04,50,11.70
2018,07,01,04,51,11.70
2018,07,01,04,52,11.70
2018,07,01,04,53,11.70
2018,07,01,04,54,11.70
2018,07,01,04,55,11.70
2018,07,01,04,56,11.70
2018,07,01,04,57,11.70
2018,07,01,04,58,11.70
2018,07,01,04,59,11.60
2018,07,01,05,00,11.60
2018,07,01,05,01,11.60
2018,07,01,05,02,11.60
2018,07,01,05,03,11.60
2018,07,01,05,04,11.60
2018,07,01,05,05,11.60
2018,07,01,05,06,11.60
2018,07,01,05,07,11.60
2018,07,01,05,08,11.60
2018,07,01,05,09,11.60
2018,07,01,05,10,11.50
2018,07,01,05,11,11.50
2018,07,01,05,12,11.50
2018,07,01,05,13,11.50
2018,07,01,05,14,11.50
2018,07,01,05,15,11.60
2018,07,01,05,16,11.50
2018,07,01,05,17,11.50
2018,07,01,05,18,11.50
2018,07,01,05,19,11.50
2018,07,01,05,20,11.50
2018,07,01,05,21,11.50
2018,07,01,05,22,11.50
2018,07,01,05,23,11.50
2018,07,01,05,24,11.50
2018,07,01,05,25,11.50
2018,07,01,05,26,11.50
2018,07,01,05,27,11.50
2018,07,01,05,28,11.40
2018,07,01,05,29,11.40
2018,07,01,05,30,11.40
2018,07,01,05,31,11.50
2018,07,01,05,32,11.50
2018,07,01,05,33,11.50
2018,07,01,05,34,11.50
2018,07,01,05,35,11.50
2018,07,01,05,36,11.50
2018,07,01,05,37,11.50
2018,07,01,05,38,11.50
2018,07,01,05,39,11.50
2018,07,01,05,40,11.50
2018,07,01,05,41,11.50
2018,07,01,05,42,11.50
2018,07,01,05,43,11.50
2018,07,01,05,44,11.60
2018,07,01,05,45,11.60
2018,07,01,05,46,11.60
2018,07,01,05,47,11.60
2018,07,01,05,48,11.60
2018,07,01,05,49,11.60
2018,07,01,05,50,11.60
2018,07,01,05,51,11.60
2018,07,01,05,52,11.60
2018,07,01,05,53,11.60
2018,07,01,05,54,11.70
2018,07,01,05,55,11.70
2018,07,01,05,56,11.70
2018,07,01,05,57,11.70
2018,07,01,05,58,11.70
2018,07,01,05,59,11.80
2018,07,01,06,00,11.80
2018,07,01,06,01,11.80
2018,07,01,06,02,11.90
2018,07,01,06,03,11.90
2018,07,01,06,04,11.90
2018,07,01,06,05,11.90
2018,07,01,06,06,12.00
2018,07,01,06,07,12.00
2018,07,01,06,08,12.00
2018,07,01,06,09,12.00
2018,07,01,06,10,12.00
2018,07,01,06,11,12.10
2018,07,01,06,12,12.10
2018,07,01,06,13,12.10
2018,07,01,06,14,12.10
2018,07,01,06,15,12.10
2018,07,01,06,16,12.10
2018,07,01,06,17,12.20
2018,07,01,06,18,12.20
2018,07,01,06,19,12.20
2018,07,01,06,20,12.20
2018,07,01,06,21,12.20
2018,07,01,06,22,12.20
2018,07,01,06,23,12.20
2018,07,01,06,24,12.30
2018,07,01,06,25,12.30
2018,07,01,06,26,12.30
2018,07,01,06,27,12.40
2018,07,01,06,28,12.40
2018,07,01,06,29,12.40
2018,07,01,06,30,12.40
2018,07,01,06,31,12.40
2018,07,01,06,32,12.50
2018,07,01,06,33,12.50
2018,07,01,06,34,12.50
2018,07,01,06,35,12.60
2018,07,01,06,36,12.60
2018,07,01,06,37,12.60
2018,07,01,06,38,12.60
2018,07,01,06,39,12.60
2018,07,01,06,40,12.60
2018,07,01,06,41,12.70
2018,07,01,06,42,12.70
2018,07,01,06,43,12.70
2018,07,01,06,44,12.70
2018,07,01,06,45,12.70
2018,07,01,06,46,12.80
2018,07,01,06,47,12.80
2018,07,01,06,48,12.80
2018,07,01,06,49,12.80
2018,07,01,06,50,12.90
2018,07,01,06,51,12.90
2018,07,01,06,52,12.90
2018,07,01,06,53,12.90
2018,07,01,06,54,12.90
2018,07,01,06,55,13.00
2018,07,01,06,56,13.00
2018,07,01,06,57,13.00
2018,07,01,06,58,13.10
2018,07,01,06,59,13.10
2018,07,01,07,00,13.10
2018,07,01,07,01,13.20
2018,07,01,07,02,13.20
2018,07,01,07,03,13.20
2018,07,01,07,04,13.30
2018,07,01,07,05,13.30
2018,07,01,07,06,13.40
2018,07,01,07,07,13.40
2018,07,01,07,08,13.40
2018,07,01,07,09,13.40
2018,07,01,07,10,13.50
2018,07,01,07,11,13.50
2018,07,01,07,12,13.50
2018,07,01,07,13,13.50
2018,07,01,07,14,13.50
2018,07,01,07,15,13.60
2018,07,01,07,16,13.60
2018,07,01,07,17,13.60
2018,07,01,07,18,13.60
2018,07,01,07,19,13.70
2018,07,01,07,20,13.70
2018,07,01,07,21,13.70
2018,07,01,07,22,13.80
2018,07,01,07,23,13.80
2018,07,01,07,24,13.80
2018,07,01,07,25,13.90
2018,07,01,07,26,13.90
2018,07,01,07,27,13.90
2018,07,01,07,28,13.90
2018,07,01,07,29,13.90
2018,07,01,07,30,13.90
2018,07,01,07,31,13.90
2018,07,01,07,32,13.90
2018,07,01,07,33,14.00
2018,07,01,07,34,14.00
2018,07,01,07,35,14.00
2018,07,01,07,36,14.00
2018,07,01,07,37,14.00
2018,07,01,07,38,14.00
2018,07,01,07,39,14.00
2018,07,01,07,40,14.00
2018,07,01,07,41,14.10
2018,07,01,07,42,14.10
2018,07,01,07,43,14.10
2018,07,01,07,44,14.10
2018,07,01,07,45,14.10
2018,07,01,07,46,14.10
2018,07,01,07,47,14.10
2018,07,01,07,48,14.10
2018,07,01,07,49,14.10
2018,07,01,07,50,14.10
2018,07,01,07,51,14.10
2018,07,01,07,52,14.20
2018,07,01,07,53,14.20
2018,07,01,07,54,14.20
2018,07,01,07,55,14.20
2018,07,01,07,56,14.20
2018,07,01,07,57,14.20
2018,07,01,07,58,14.20
2018,07,01,07,59,14.20
2018,07,01,08,00,14.20
2018,07,01,08,01,14.20
2018,07,01,08,02,14.20
2018,07,01,08,03,14.20
2018,07,01,08,04,14.20
2018,07,01,08,05,14.20
2018,07,01,08,06,14.20
2018,07,01,08,07,14.20
2018,07,01,08,08,14.20
2018,07,01,08,09,14.20
2018,07,01,08,10,14.20
2018,07,01,08,11,14.20
2018,07,01,08,12,14.30
2018,07,01,08,13,14.30
2018,07,01,08,14,14.30
2018,07,01,08,15,14.30
2018,07,01,08,16,14.30
2018,07,01,08,17,14.30
2018,07,01,08,18,14.30
2018,07,01,08,19,14.30
2018,07,01,08,20,14.30
2018,07,01,08,21,14.30
2018,07,01,08,22,14.30
2018,07,01,08,23,14.30
2018,07,01,08,24,14.30
2018,07,01,08,25,14.30
2018,07,01,08,26,14.30
2018,07,01,08,27,14.30
2018,07,01,08,28,14.30
2018,07,01,08,29,14.30
2018,07,01,08,30,14.30
2018,07,01,08,31,14.30
2018,07,01,08,32,14.30
2018,07,01,08,33,14.30
2018,07,01,08,34,14.30
2018,07,01,08,35,14.30
2018,07,01,08,36,14.30
2018,07,01,08,37,14.30
2018,07,01,08,38,14.30
2018,07,01,08,39,14.30
2018,07,01,08,40,14.30
2018,07,01,08,41,14.30
2018,07,01,08,42,14.30
2018,07,01,08,43,14.20
2018,07,01,08,44,14.30
2018,07,01,08,45,14.30
2018,07,01,08,46,14.30
2018,07,01,08,47,14.30
2018,07,01,08,48,14.30
2018,07,01,08,49,14.30
2018,07,01,08,50,14.30
2018,07,01,08,51,14.30
2018,07,01,08,52,14.30
2018,07,01,08,53,14.30
2018,07,01,08,54,14.40
2018,07,01,08,55,14.40
2018,07,01,08,56,14.40
2018,07,01,08,57,14.40
2018,07,01,08,58,14.40
2018,07,01,08,59,14.40
2018,07,01,09,00,14.50
2018,07,01,09,01,14.50
2018,07,01,09,02,14.50
2018,07,01,09,03,14.50
2018,07,01,09,04,14.50
2018,07,01,09,05,14.50
2018,07,01,09,06,14.50
2018,07,01,09,07,14.50
2018,07,01,09,08,14.60
2018,07,01,09,09,14.60
2018,07,01,09,10,14.60
2018,07,01,09,11,14.60
2018,07,01,09,12,14.60
2018,07,01,09,13,14.50
2018,07,01,09,14,14.40
2018,07,01,09,15,14.40
2018,07,01,09,16,14.50
2018,07,01,09,17,14.50
2018,07,01,09,18,14.50
2018,07,01,09,19,14.50
2018,07,01,09,20,14.50
2018,07,01,09,21,14.50
2018,07,01,09,22,14.50
2018,07,01,09,23,14.60
2018,07,01,09,24,14.60
2018,07,01,09,25,14.60
2018,07,01,09,26,14.60
2018,07,01,09,27,14.60
2018,07,01,09,28,14.50
2018,07,01,09,29,14.50
2018,07,01,09,30,14.50
2018,07,01,09,31,14.50
2018,07,01,09,32,14.60
2018,07,01,09,33,14.60
2018,07,01,09,34,14.60
2018,07,01,09,35,14.60
2018,07,01,09,36,14.60
2018,07,01,09,37,14.60
2018,07,01,09,38,14.70
2018,07,01,09,39,14.70
2018,07,01,09,40,14.70
2018,07,01,09,41,14.70
2018,07,01,09,42,14.70
2018,07,01,09,43,14.80
2018,07,01,09,44,14.80
2018,07,01,09,45,14.80
2018,07,01,09,46,14.80
2018,07,01,09,47,14.90
2018,07,01,09,48,14.90
2018,07,01,09,49,15.00
2018,07,01,09,50,15.00
2018,07,01,09,51,15.10
2018,07,01,09,52,15.10
2018,07,01,09,53,15.20
2018,07,01,09,54,15.20
2018,07,01,09,55,15.10
2018,07,01,09,56,15.20
2018,07,01,09,57,15.20
2018,07,01,09,58,15.20
2018,07,01,09,59,15.20
2018,07,01,10,00,15.30
2018,07,01,10,01,15.30
2018,07,01,10,02,15.30
2018,07,01,10,03,15.30
2018,07,01,10,04,15.40
2018,07,01,10,05,15.40
2018,07,01,10,06,15.50
2018,07,01,10,07,15.60
2018,07,01,10,08,15.70
2018,07,01,10,09,15.70
2018,07,01,10,10,15.70
2018,07,01,10,11,15.60
2018,07,01,10,12,15.50
2018,07,01,10,13,15.40
2018,07,01,10,14,15.30
2018,07,01,10,15,15.30
2018,07,01,10,16,15.30
2018,07,01,10,17,15.30
2018,07,01,10,18,15.30
2018,07,01,10,19,15.30
2018,07,01,10,20,15.30
2018,07,01,10,21,15.40
2018,07,01,10,22,15.50
2018,07,01,10,23,15.50
2018,07,01,10,24,15.60
2018,07,01,10,25,15.60
2018,07,01,10,26,15.70
2018,07,01,10,27,15.70
2018,07,01,10,28,15.70
2018,07,01,10,29,15.70
2018,07,01,10,30,15.70
2018,07,01,10,31,15.80
2018,07,01,10,32,15.80
2018,07,01,10,33,15.80
2018,07,01,10,34,15.80
2018,07,01,10,35,15.80
2018,07,01,10,36,15.80
2018,07,01,10,37,15.90
2018,07,01,10,38,15.90
2018,07,01,10,39,15.90
2018,07,01,10,40,16.00
2018,07,01,10,41,16.00
2018,07,01,10,42,16.10
2018,07,01,10,43,16.10
2018,07,01,10,44,16.20
2018,07,01,10,45,16.20
2018,07,01,10,46,16.30
2018,07,01,10,47,16.30
2018,07,01,10,48,16.40
2018,07,01,10,49,16.50
2018,07,01,10,50,16.60
2018,07,01,10,51,16.70
2018,07,01,10,52,16.80
2018,07,01,10,53,16.80
2018,07,01,10,54,16.90
2018,07,01,10,55,16.80
2018,07,01,10,56,16.90
2018,07,01,10,57,16.90
2018,07,01,10,58,16.90
2018,07,01,10,59,16.90
2018,07,01,11,00,16.90
2018,07,01,11,01,16.90
2018,07,01,11,02,17.00
2018,07,01,11,03,17.10
2018,07,01,11,04,17.10
2018,07,01,11,05,17.20
2018,07,01,11,06,17.20
2018,07,01,11,07,17.30
2018,07,01,11,08,17.30
2018,07,01,11,09,17.40
2018,07,01,11,10,17.50
2018,07,01,11,11,17.40
2018,07,01,11,12,17.40
2018,07,01,11,13,17.40
2018,07,01,11,14,17.40
2018,07,01,11,15,17.50
2018,07,01,11,16,17.60
2018,07,01,11,17,17.70
2018,07,01,11,18,17.80
2018,07,01,11,19,17.80
2018,07,01,11,20,17.80
2018,07,01,11,21,17.80
2018,07,01,11,22,17.90
2018,07,01,11,23,17.90
2018,07,01,11,24,18.00
2018,07,01,11,25,18.00
2018,07,01,11,26,18.00
2018,07,01,11,27,18.00
2018,07,01,11,28,18.00
2018,07,01,11,29,18.00
2018,07,01,11,30,18.00
2018,07,01,11,31,18.00
2018,07,01,11,32,18.10
2018,07,01,11,33,18.10
2018,07,01,11,34,18.10
2018,07,01,11,35,18.10
2018,07,01,11,36,18.20
2018,07,01,11,37,18.20
2018,07,01,11,38,18.30
2018,07,01,11,39,18.30
2018,07,01,11,40,18.30
2018,07,01,11,41,18.30
2018,07,01,11,42,18.20
2018,07,01,11,43,18.10
2018,07,01,11,44,18.00
2018,07,01,11,45,17.90
2018,07,01,11,46,17.80
2018,07,01,11,47,17.80
2018,07,01,11,48,17.80
2018,07,01,11,49,17.70
2018,07,01,11,50,17.70
2018,07,01,11,51,17.60
2018,07,01,11,52,17.50
2018,07,01,11,53,17.40
2018,07,01,11,54,17.40
2018,07,01,11,55,17.40
2018,07,01,11,56,17.50
2018,07,01,11,57,17.50
2018,07,01,11,58,17.60
2018,07,01,11,59,17.70
2018,07,01,12,00,17.80
2018,07,01,12,01,17.80
2018,07,01,12,02,17.90
2018,07,01,12,03,17.90
2018,07,01,12,04,17.90
2018,07,01,12,05,17.80
2018,07,01,12,06,17.70
2018,07,01,12,07,17.60
2018,07,01,12,08,17.60
2018,07,01,12,09,17.50
2018,07,01,12,10,17.40
2018,07,01,12,11,17.40
2018,07,01,12,12,17.30
2018,07,01,12,13,17.30
2018,07,01,12,14,17.40
2018,07,01,12,15,17.40
2018,07,01,12,16,17.50
2018,07,01,12,17,17.50
2018,07,01,12,18,17.60
2018,07,01,12,19,17.60
2018,07,01,12,20,17.70
2018,07,01,12,21,17.80
2018,07,01,12,22,17.90
2018,07,01,12,23,18.10
2018,07,01,12,24,18.20
2018,07,01,12,25,18.30
2018,07,01,12,26,18.40
2018,07,01,12,27,18.60
2018,07,01,12,28,18.60
2018,07,01,12,29,18.70
2018,07,01,12,30,18.70
2018,07,01,12,31,18.80
2018,07,01,12,32,18.90
2018,07,01,12,33,19.00
2018,07,01,12,34,19.10
2018,07,01,12,35,19.30
2018,07,01,12,36,19.30
2018,07,01,12,37,19.30
2018,07,01,12,38,19.30
2018,07,01,12,39,19.30
2018,07,01,12,40,19.20
2018,07,01,12,41,19.20
2018,07,01,12,42,19.20
2018,07,01,12,43,19.10
2018,07,01,12,44,19.00
2018,07,01,12,45,19.00
2018,07,01,12,46,18.90
2018,07,01,12,47,18.90
2018,07,01,12,48,19.00
2018,07,01,12,49,19.10
2018,07,01,12,50,19.20
2018,07,01,12,51,19.30
2018,07,01,12,52,19.50
2018,07,01,12,53,19.60
2018,07,01,12,54,19.80
2018,07,01,12,55,19.90
2018,07,01,12,56,19.90
2018,07,01,12,57,20.00
2018,07,01,12,58,20.00
2018,07,01,12,59,20.00
2018,07,01,13,00,20.10
2018,07,01,13,01,20.10
2018,07,01,13,02,20.10
2018,07,01,13,03,20.00
2018,07,01,13,04,19.90
2018,07,01,13,05,19.80
2018,07,01,13,06,19.70
2018,07,01,13,07,19.50
2018,07,01,13,08,19.40
2018,07,01,13,09,19.30
2018,07,01,13,10,19.30
2018,07,01,13,11,19.20
2018,07,01,13,12,19.20
2018,07,01,13,13,19.20
2018,07,01,13,14,19.20
2018,07,01,13,15,19.30
2018,07,01,13,16,19.30
2018,07,01,13,17,19.30
2018,07,01,13,18,19.30
2018,07,01,13,19,19.30
2018,07,01,13,20,19.40
2018,07,01,13,21,19.60
2018,07,01,13,22,19.70
2018,07,01,13,23,19.70
2018,07,01,13,24,19.80
2018,07,01,13,25,19.70
2018,07,01,13,26,19.70
2018,07,01,13,27,19.60
2018,07,01,13,28,19.60
2018,07,01,13,29,19.40
2018,07,01,13,30,19.30
2018,07,01,13,31,19.30
2018,07,01,13,32,19.30
2018,07,01,13,33,19.20
2018,07,01,13,34,19.20
2018,07,01,13,35,19.20
2018,07,01,13,36,19.20
2018,07,01,13,37,19.10
2018,07,01,13,38,19.10
2018,07,01,13,39,19.10
2018,07,01,13,40,19.10
2018,07,01,13,41,19.10
2018,07,01,13,42,19.10
2018,07,01,13,43,19.10
2018,07,01,13,44,19.20
2018,07,01,13,45,19.20
2018,07,01,13,46,19.30
2018,07,01,13,47,19.30
2018,07,01,13,48,19.20
2018,07,01,13,49,19.20
2018,07,01,13,50,19.20
2018,07,01,13,51,19.20
2018,07,01,13,52,19.20
2018,07,01,13,53,19.20
2018,07,01,13,54,19.20
2018,07,01,13,55,19.30
2018,07,01,13,56,19.30
2018,07,01,13,57,19.40
2018,07,01,13,58,19.50
2018,07,01,13,59,19.50
2018,07,01,14,00,19.60
2018,07,01,14,01,19.60
2018,07,01,14,02,19.70
2018,07,01,14,03,19.80
2018,07,01,14,04,19.90
2018,07,01,14,05,20.00
2018,07,01,14,06,20.00
2018,07,01,14,07,20.00
2018,07,01,14,08,19.90
2018,07,01,14,09,19.90
2018,07,01,14,10,19.90
2018,07,01,14,11,20.00
2018,07,01,14,12,20.10
2018,07,01,14,13,20.20
2018,07,01,14,14,20.20
2018,07,01,14,15,20.30
2018,07,01,14,16,20.30
2018,07,01,14,17,20.40
2018,07,01,14,18,20.40
2018,07,01,14,19,20.40
2018,07,01,14,20,20.50
2018,07,01,14,21,20.50
2018,07,01,14,22,20.50
2018,07,01,14,23,20.40
2018,07,01,14,24,20.40
2018,07,01,14,25,20.40
2018,07,01,14,26,20.40
2018,07,01,14,27,20.40
2018,07,01,14,28,20.50
2018,07,01,14,29,20.50
2018,07,01,14,30,20.60
2018,07,01,14,31,20.60
2018,07,01,14,32,20.50
2018,07,01,14,33,20.50
2018,07,01,14,34,20.50
2018,07,01,14,35,20.50
2018,07,01,14,36,20.40
2018,07,01,14,37,20.30
2018,07,01,14,38,20.20
2018,07,01,14,39,20.20
2018,07,01,14,40,20.10
2018,07,01,14,41,20.00
2018,07,01,14,42,19.90
2018,07,01,14,43,19.80
2018,07,01,14,44,19.80
2018,07,01,14,45,19.80
2018,07,01,14,46,19.80
2018,07,01,14,47,19.80
2018,07,01,14,48,19.80
2018,07,01,14,49,19.80
2018,07,01,14,50,19.80
2018,07,01,14,51,19.80
2018,07,01,14,52,19.80
2018,07,01,14,53,19.80
2018,07,01,14,54,19.80
2018,07,01,14,55,19.80
2018,07,01,14,56,19.80
2018,07,01,14,57,19.80
2018,07,01,14,58,19.80
2018,07,01,14,59,19.80
2018,07,01,15,00,19.90
2018,07,01,15,01,19.90
2018,07,01,15,02,20.00
2018,07,01,15,03,20.00
2018,07,01,15,04,20.00
2018,07,01,15,05,20.00
2018,07,01,15,06,20.00
2018,07,01,15,07,20.00
2018,07,01,15,08,20.00
2018,07,01,15,09,20.00
2018,07,01,15,10,19.90
2018,07,01,15,11,19.90
2018,07,01,15,12,19.80
2018,07,01,15,13,19.80
2018,07,01,15,14,19.80
2018,07,01,15,15,19.80
2018,07,01,15,16,19.80
2018,07,01,15,17,19.90
2018,07,01,15,18,19.80
2018,07,01,15,19,19.80
2018,07,01,15,20,19.80
2018,07,01,15,21,19.80
2018,07,01,15,22,19.80
2018,07,01,15,23,19.80
2018,07,01,15,24,19.80
2018,07,01,15,25,19.70
2018,07,01,15,26,19.70
2018,07,01,15,27,19.60
2018,07,01,15,28,19.50
2018,07,01,15,29,19.50
2018,07,01,15,30,19.40
2018,07,01,15,31,19.40
2018,07,01,15,32,19.40
2018,07,01,15,33,19.40
2018,07,01,15,34,19.40
2018,07,01,15,35,19.40
2018,07,01,15,36,19.40
2018,07,01,15,37,19.40
2018,07,01,15,38,19.40
2018,07,01,15,39,19.30
2018,07,01,15,40,19.30
2018,07,01,15,41,19.30
2018,07,01,15,42,19.30
2018,07,01,15,43,19.30
2018,07,01,15,44,19.30
2018,07,01,15,45,19.30
2018,07,01,15,46,19.20
2018,07,01,15,47,19.20
2018,07,01,15,48,19.20
2018,07,01,15,49,19.20
2018,07,01,15,50,19.20
2018,07,01,15,51,19.20
2018,07,01,15,52,19.20
2018,07,01,15,53,19.10
2018,07,01,15,54,19.10
2018,07,01,15,55,19.00
2018,07,01,15,56,19.00
2018,07,01,15,57,18.90
2018,07,01,15,58,18.90
2018,07,01,15,59,18.90
2018,07,01,16,00,19.00
2018,07,01,16,01,19.00
2018,07,01,16,02,19.10
2018,07,01,16,03,19.10
2018,07,01,16,04,19.20
2018,07,01,16,05,19.20
2018,07,01,16,06,19.30
2018,07,01,16,07,19.30
2018,07,01,16,08,19.30
2018,07,01,16,09,19.30
2018,07,01,16,10,19.20
2018,07,01,16,11,19.10
2018,07,01,16,12,19.10
2018,07,01,16,13,19.10
2018,07,01,16,14,19.10
2018,07,01,16,15,19.10
2018,07,01,16,16,19.10
2018,07,01,16,17,19.10
2018,07,01,16,18,19.00
2018,07,01,16,19,18.90
2018,07,01,16,20,18.90
2018,07,01,16,21,18.80
2018,07,01,16,22,18.70
2018,07,01,16,23,18.60
2018,07,01,16,24,18.60
2018,07,01,16,25,18.60
2018,07,01,16,26,18.50
2018,07,01,16,27,18.40
2018,07,01,16,28,18.30
2018,07,01,16,29,18.30
2018,07,01,16,30,18.20
2018,07,01,16,31,18.20
2018,07,01,16,32,18.10
2018,07,01,16,33,18.10
2018,07,01,16,34,18.10
2018,07,01,16,35,18.10
2018,07,01,16,36,18.10
2018,07,01,16,37,18.10
2018,07,01,16,38,18.10
2018,07,01,16,39,18.10
2018,07,01,16,40,18.20
2018,07,01,16,41,18.20
2018,07,01,16,42,18.30
2018,07,01,16,43,18.40
2018,07,01,16,44,18.40
2018,07,01,16,45,18.50
2018,07,01,16,46,18.60
2018,07,01,16,47,18.70
2018,07,01,16,48,18.90
2018,07,01,16,49,19.00
2018,07,01,16,50,19.00
2018,07,01,16,51,19.10
2018,07,01,16,52,19.20
2018,07,01,16,53,19.30
2018,07,01,16,54,19.30
2018,07,01,16,55,19.30
2018,07,01,16,56,19.30
2018,07,01,16,57,19.30
2018,07,01,16,58,19.20
2018,07,01,16,59,19.20
2018,07,01,17,00,19.20
2018,07,01,17,01,19.10
2018,07,01,17,02,19.10
2018,07,01,17,03,19.00
2018,07,01,17,04,19.00
2018,07,01,17,05,19.00
2018,07,01,17,06,19.00
2018,07,01,17,07,18.90
2018,07,01,17,08,18.80
2018,07,01,17,09,18.80
2018,07,01,17,10,18.60
2018,07,01,17,11,18.50
2018,07,01,17,12,18.40
2018,07,01,17,13,18.40
2018,07,01,17,14,18.40
2018,07,01,17,15,18.40
2018,07,01,17,16,18.40
2018,07,01,17,17,18.30
2018,07,01,17,18,18.40
2018,07,01,17,19,18.40